PRAETORIAN SDA_608

Last updated on Thu Aug 20 2026 00:03:39 GMT+0000 (Coordinated Universal Time)

1 65571U 25203G 26231.48584052 .00000047 00000+0 31946-4 0 9993 2 65571 81.3026 312.2131 0006517 38.0137 322.1479 13.83822438 47449
UTC large
Height (km)
Speed (km/s)
/
Latitude / Longitude
Inclination (degrees)
Orbital Period (minutes)
Azimuth
Elevation
Range (km)
Doppler Factor

Next 0 passes for location: London (51.5072 / 0.1276)

No passes found over London.
PRAETORIAN SDA_608